Weather History for Logansport, IN

Change the Weather History Date:

Friday, November 22, 2013

  Actual Average Record
Temperature  
Mean Temperature 37 °F -  
Max Temperature 46 °F 49 °F 50 °F (2014)
Min Temperature 28 °F 33 °F 28 °F (2013)
Degree Days  
Heating Degree Days 28    
Moisture  
Dew Point 37 °F    
Average Humidity 92    
Maximum Humidity 100    
Minimum Humidity 76    
Precipitation  
Precipitation 0.06 in - - ()
Sea Level Pressure  
Sea Level Pressure 30.31 in    
Wind  
Wind Speed 7 mph (NW)    
Max Wind Speed 16 mph    
Max Gust Speed 24 mph    
Visibility 7 miles    
Events Rain    
Averages and records for this station are not official NWS values.
T = Trace of Precipitation, MM = Missing Value Source: NWS Daily Summary

Daily Weather History Graph

Daily Weather History Graph

Search for Another Location

Airport:

Trip Planner

Search our weather history database for the weather conditions in past years. The results will help you decide how hot, cold, wet, or windy it might be!

Date:

Astronomy

Nov. 22, 2013 Rise Set
Actual Time 7:40 AM EST 5:22 PM EST
Civil Twilight 7:10 AM EST 5:52 PM EST
Nautical Twilight 6:37 AM EST 6:25 PM EST
Astronomical Twilight 6:04 AM EST 6:58 PM EST
Moon 9:54 PM EST (11/22) 11:23 AM EST (11/22)
Length of Visible Light 10h 41m
Length of Day
9h 41m
Waning Gibbous, 78% of the Moon is Illuminated
Nov 22
Waning Gibbous
Nov 25
Last Quarter
Dec 2
New
Dec 9
First Quarter
Dec 17
Full

Hourly Weather History & Observations

Time (EST) Temp. Windchill Dew Point Humidity Pressure Visibility Wind Dir Wind Speed Gust Speed Precip Events Conditions
12:15 AM 46.4 °F 45.2 °F 46.4 °F 100% 30.19 in 1.5 mi WSW 3.5 mph - N/A   Overcast
12:35 AM 46.4 °F 44.3 °F 46.4 °F 100% 30.19 in 1.5 mi WSW 4.6 mph - N/A   Overcast
12:55 AM 46.4 °F 45.2 °F 46.4 °F 100% 30.18 in 1.2 mi West 3.5 mph - N/A Rain Rain
1:15 AM 46.4 °F 45.2 °F 46.4 °F 100% 30.18 in 1.5 mi West 3.5 mph - N/A   Drizzle
1:35 AM 46.4 °F 44.3 °F 46.4 °F 100% 30.17 in 2.0 mi West 4.6 mph - N/A   Light Drizzle
1:55 AM 46.4 °F 44.3 °F 46.4 °F 100% 30.17 in 5.0 mi WNW 4.6 mph - 0.01 in   Overcast
2:15 AM 46.4 °F 44.3 °F 44.6 °F 93% 30.18 in 5.0 mi West 4.6 mph - N/A   Overcast
2:35 AM 46.4 °F 45.2 °F 44.6 °F 93% 30.18 in 5.0 mi WNW 3.5 mph - N/A   Overcast
2:55 AM 46.4 °F 45.2 °F 44.6 °F 93% 30.17 in 5.0 mi NW 3.5 mph - N/A   Overcast
3:15 AM 46.4 °F 45.2 °F 44.6 °F 93% 30.17 in 4.0 mi WNW 3.5 mph - N/A   Overcast
3:35 AM 44.6 °F 43.1 °F 44.6 °F 100% 30.19 in 3.0 mi West 3.5 mph - N/A   Overcast
3:55 AM 44.6 °F - 44.6 °F 100% 30.18 in 3.0 mi Calm Calm - N/A   Overcast
4:15 AM 44.6 °F 43.1 °F 44.6 °F 100% 30.19 in 4.0 mi WNW 3.5 mph - N/A   Overcast
4:35 AM 44.6 °F 42.2 °F 44.6 °F 100% 30.17 in 3.0 mi North 4.6 mph - N/A   Overcast
4:55 AM 44.6 °F 43.1 °F 44.6 °F 100% 30.18 in 3.0 mi West 3.5 mph - N/A   Overcast
5:15 AM 44.6 °F - 44.6 °F 100% 30.19 in 3.0 mi Calm Calm - N/A Rain Rain
5:35 AM 44.6 °F 43.1 °F 44.6 °F 100% 30.18 in 3.0 mi NNW 3.5 mph - 0.02 in Rain Rain
5:55 AM 44.6 °F 42.2 °F 44.6 °F 100% 30.18 in 3.0 mi NW 4.6 mph - 0.03 in Rain Rain
6:15 AM 44.6 °F 41.4 °F 44.6 °F 100% 30.19 in 3.0 mi NNW 5.8 mph - 0.01 in Rain Rain
6:35 AM 44.6 °F 40.2 °F 44.6 °F 100% 30.19 in 4.0 mi NNW 8.1 mph - 0.01 in   Overcast
6:55 AM 42.8 °F 37.0 °F 42.8 °F 100% 30.20 in 2.0 mi NNW 10.4 mph - 0.01 in Rain Light Rain
7:15 AM 42.8 °F 36.2 °F 42.8 °F 100% 30.21 in 3.0 mi NNW 12.7 mph 17.3 mph N/A Rain Light Rain
7:35 AM 42.8 °F 38.6 °F 41.0 °F 93% 30.23 in 3.0 mi NNW 6.9 mph - 0.01 in Rain Light Rain
7:55 AM 42.8 °F 37.5 °F 41.0 °F 93% 30.24 in 3.0 mi NNW 9.2 mph - 0.01 in Rain Light Rain
8:15 AM 42.8 °F 37.0 °F 41.0 °F 93% 30.24 in 3.0 mi NNW 10.4 mph - N/A   Light Drizzle
8:35 AM 41.0 °F 35.2 °F 41.0 °F 100% 30.25 in 4.0 mi NNW 9.2 mph - N/A Rain Light Rain
8:55 AM 41.0 °F 35.8 °F 39.2 °F 93% 30.26 in 4.0 mi NNW 8.1 mph - N/A   Light Drizzle
9:15 AM 41.0 °F 35.2 °F 39.2 °F 93% 30.27 in 4.0 mi NNW 9.2 mph - N/A   Overcast
9:35 AM 41.0 °F 35.2 °F 39.2 °F 93% 30.28 in 4.0 mi NNW 9.2 mph - N/A   Overcast
9:55 AM 41.0 °F 34.7 °F 39.2 °F 93% 30.29 in 4.0 mi NNW 10.4 mph - N/A   Overcast
10:15 AM 41.0 °F 34.7 °F 37.4 °F 87% 30.30 in 5.0 mi North 10.4 mph - N/A   Overcast
10:35 AM 41.0 °F 33.9 °F 37.4 °F 87% 30.31 in 5.0 mi NNW 12.7 mph 17.3 mph N/A   Overcast
10:55 AM 41.0 °F 35.8 °F 37.4 °F 87% 30.31 in 7.0 mi NW 8.1 mph - N/A   Overcast
11:15 AM 41.0 °F 34.7 °F 37.4 °F 87% 30.32 in 10.0 mi NNW 10.4 mph 18.4 mph N/A   Overcast
11:35 AM 39.2 °F 30.5 °F 37.4 °F 93% 30.33 in 10.0 mi NNW 16.1 mph 23.0 mph N/A   Overcast
11:55 AM 39.2 °F 31.2 °F 35.6 °F 87% 30.32 in 10.0 mi NNW 13.8 mph 23.0 mph N/A   Overcast
12:15 PM 39.2 °F 33.6 °F 35.6 °F 87% 30.33 in 10.0 mi NNW 8.1 mph 19.6 mph N/A   Overcast
12:35 PM 39.2 °F 30.8 °F 35.6 °F 87% 30.32 in 10.0 mi NNW 15.0 mph 20.7 mph N/A   Overcast
12:55 PM 37.4 °F 29.3 °F 35.6 °F 93% 30.32 in 10.0 mi NNW 12.7 mph 20.7 mph N/A   Overcast
1:15 PM 39.2 °F 30.8 °F 35.6 °F 87% 30.33 in 10.0 mi North 15.0 mph - N/A   Overcast
1:35 PM 39.2 °F 31.6 °F 35.6 °F 87% 30.33 in 10.0 mi NNW 12.7 mph - N/A   Overcast
1:55 PM 39.2 °F 31.6 °F 33.8 °F 81% 30.33 in 10.0 mi NNW 12.7 mph 23.0 mph N/A   Overcast
2:15 PM 39.2 °F 32.0 °F 35.6 °F 87% 30.33 in 10.0 mi NNW 11.5 mph - N/A   Overcast
2:35 PM 39.2 °F 31.6 °F 33.8 °F 81% 30.33 in 10.0 mi North 12.7 mph 17.3 mph N/A   Overcast
2:55 PM 39.2 °F 33.0 °F 33.8 °F 81% 30.33 in 10.0 mi NW 9.2 mph 17.3 mph N/A   Overcast
3:15 PM 41.0 °F 34.3 °F 33.8 °F 76% 30.33 in 10.0 mi NNW 11.5 mph 17.3 mph N/A   Overcast
3:35 PM 39.2 °F 33.6 °F 33.8 °F 81% 30.34 in 10.0 mi NW 8.1 mph 17.3 mph N/A   Overcast
3:55 PM 37.4 °F 29.8 °F 32.0 °F 81% 30.36 in 10.0 mi NW 11.5 mph 19.6 mph N/A   Overcast
4:15 PM 37.4 °F 28.5 °F 32.0 °F 81% 30.37 in 10.0 mi NNW 15.0 mph - N/A   Overcast
4:35 PM 37.4 °F 29.8 °F 32.0 °F 81% 30.39 in 10.0 mi NNW 11.5 mph - N/A   Overcast
4:55 PM 35.6 °F 26.2 °F 32.0 °F 87% 30.39 in 10.0 mi NNW 15.0 mph 24.2 mph N/A   Overcast
5:15 PM 35.6 °F 27.5 °F 32.0 °F 87% 30.40 in 10.0 mi NNW 11.5 mph 16.1 mph N/A   Overcast
5:35 PM 35.6 °F 28.0 °F 32.0 °F 87% 30.40 in 10.0 mi NNW 10.4 mph 16.1 mph N/A   Mostly Cloudy
5:55 PM 35.6 °F 29.2 °F 32.0 °F 87% 30.41 in 10.0 mi NNW 8.1 mph - N/A   Mostly Cloudy
6:15 PM 35.6 °F 27.5 °F 32.0 °F 87% 30.42 in 10.0 mi NNW 11.5 mph 18.4 mph N/A   Overcast
6:35 PM 33.8 °F 24.8 °F 32.0 °F 93% 30.42 in 10.0 mi NNW 12.7 mph 19.6 mph N/A   Overcast
6:55 PM 33.8 °F 27.0 °F 32.0 °F 93% 30.43 in 10.0 mi NNW 8.1 mph - N/A   Overcast
7:15 PM 33.8 °F 25.3 °F 30.2 °F 87% 30.43 in 10.0 mi North 11.5 mph - N/A   Scattered Clouds
7:35 PM 32.0 °F 23.6 °F 30.2 °F 93% 30.44 in 10.0 mi NNW 10.4 mph - N/A   Clear
7:55 PM 32.0 °F 24.2 °F 30.2 °F 93% 30.44 in 10.0 mi NNW 9.2 mph - N/A   Scattered Clouds
8:15 PM 32.0 °F 27.5 °F 30.2 °F 93% 30.44 in 10.0 mi NNW 4.6 mph - N/A   Mostly Cloudy
8:35 PM 32.0 °F 27.5 °F 30.2 °F 93% 30.44 in 10.0 mi NNW 4.6 mph - N/A   Scattered Clouds
8:55 PM 32.0 °F 27.5 °F 30.2 °F 93% 30.45 in 10.0 mi NNW 4.6 mph - N/A   Clear
9:15 PM 32.0 °F 28.7 °F 28.4 °F 87% 30.44 in 10.0 mi NW 3.5 mph - N/A   Clear
9:35 PM 32.0 °F 28.7 °F 28.4 °F 87% 30.45 in 10.0 mi NW 3.5 mph - N/A   Clear
9:55 PM 32.0 °F 27.5 °F 28.4 °F 87% 30.45 in 10.0 mi WNW 4.6 mph - N/A   Clear
10:15 PM 32.0 °F 28.7 °F 28.4 °F 87% 30.45 in 10.0 mi WNW 3.5 mph - N/A   Clear
10:35 PM 32.0 °F 27.5 °F 28.4 °F 87% 30.45 in 10.0 mi WNW 4.6 mph - N/A   Clear
10:55 PM 30.2 °F 26.7 °F 28.4 °F 93% 30.45 in 10.0 mi WNW 3.5 mph - N/A   Clear
11:15 PM 30.2 °F 25.4 °F 28.4 °F 93% 30.45 in 10.0 mi WNW 4.6 mph - N/A   Clear
11:35 PM 28.4 °F - 26.6 °F 93% 30.45 in 10.0 mi Calm Calm - N/A   Clear
11:55 PM 28.4 °F 24.6 °F 26.6 °F 93% 30.45 in 10.0 mi WNW 3.5 mph - N/A   Clear